Location: Cabrera Baja
(40.4089°N, 4.3354°W)
Time: 02:55:55
(UTC+00:00)

BREEZE-M DEB (TANK) - Pass Details

Date: 14 July 2020
Orbit: 426 x 13239 km, 46.0° (Epoch: 03 August)

Event Time Altitude Azimuth Distance (km) Brightness Sun altitude
Rises 23:53:59 0° 244° (WSW) 9,650 8.9 -27.6°
Reaches altitude 10° 00:03:12 10° 246° (WSW) 6,545 8.1 -27.8°
Maximum altitude 00:17:39 82° 334° (NNW) 1,146 4.3 -27.9°
Drops below altitude 10° 00:21:57 10° 64° (ENE) 2,102 6.0 -28.0°
Sets 00:23:26 0° 65° (ENE) 2,756 6.7 -28.0°
